TimeMST,TemperatureF,Dew PointF,Humidity,Sea Level PressureIn,VisibilityMPH,Wind Direction,Wind SpeedMPH,Gust SpeedMPH,PrecipitationIn,Events,Conditions,WindDirDegrees,DateUTC
12:53 AM,33.1,27.0,78,30.04,10.0,WNW,8.1,-,N/A,,Overcast,290,2013-11-09 07:53:00
1:53 AM,33.1,28.9,85,30.05,10.0,WSW,9.2,-,N/A,,Overcast,250,2013-11-09 08:53:00
2:53 AM,34.0,30.0,85,30.06,10.0,West,5.8,-,N/A,,Overcast,260,2013-11-09 09:53:00
3:53 AM,34.0,30.0,85,30.08,10.0,West,3.5,-,N/A,,Overcast,280,2013-11-09 10:53:00
4:53 AM,35.1,30.0,82,30.13,10.0,WNW,6.9,-,N/A,,Mostly Cloudy,300,2013-11-09 11:53:00
5:53 AM,33.1,28.0,82,30.16,10.0,WNW,3.5,-,N/A,,Overcast,290,2013-11-09 12:53:00
6:53 AM,32.0,26.1,79,30.20,10.0,WNW,9.2,-,N/A,,Clear,300,2013-11-09 13:53:00
7:53 AM,36.0,28.0,73,30.23,10.0,WNW,5.8,-,N/A,,Clear,300,2013-11-09 14:53:00
8:53 AM,44.1,28.9,55,30.23,10.0,NW,4.6,-,N/A,,Clear,310,2013-11-09 15:53:00
9:53 AM,48.9,27.0,43,30.22,10.0,North,9.2,-,N/A,,Clear,360,2013-11-09 16:53:00
10:53 AM,51.1,27.0,39,30.22,10.0,North,6.9,-,N/A,,Clear,350,2013-11-09 17:53:00
11:53 AM,52.0,27.0,38,30.22,10.0,Variable,5.8,-,N/A,,Clear,0,2013-11-09 18:53:00
12:53 PM,52.0,26.1,37,30.19,10.0,WNW,8.1,-,N/A,,Mostly Cloudy,290,2013-11-09 19:53:00
1:53 PM,53.1,27.0,37,30.19,10.0,NNE,5.8,-,N/A,,Clear,20,2013-11-09 20:53:00
2:53 PM,53.1,26.1,35,30.20,10.0,NNE,6.9,-,N/A,,Clear,30,2013-11-09 21:53:00
3:53 PM,46.9,28.9,50,30.23,10.0,NNE,6.9,-,N/A,,Clear,30,2013-11-09 22:53:00
4:53 PM,39.0,28.9,67,30.28,10.0,NE,9.2,-,N/A,,Clear,50,2013-11-09 23:53:00
5:53 PM,36.0,28.0,73,30.32,10.0,ENE,6.9,-,N/A,,Clear,70,2013-11-10 00:53:00
6:53 PM,35.1,28.0,76,30.33,10.0,East,6.9,-,N/A,,Clear,80,2013-11-10 01:53:00
7:53 PM,33.1,26.1,75,30.33,10.0,East,6.9,-,N/A,,Clear,90,2013-11-10 02:53:00
8:53 PM,30.9,26.1,82,30.34,10.0,Calm,Calm,-,N/A,,Clear,0,2013-11-10 03:53:00
9:53 PM,32.0,25.0,75,30.32,10.0,Calm,Calm,-,N/A,,Clear,0,2013-11-10 04:53:00
10:53 PM,27.0,21.9,81,30.33,10.0,Calm,Calm,-,N/A,,Clear,0,2013-11-10 05:53:00
11:53 PM,21.9,19.9,92,30.33,10.0,Calm,Calm,-,N/A,,Clear,0,2013-11-10 06:53:00